HIMAWARI-9

Last updated on Jan. 27, 2020, 4:38 a.m. UTC

1 41836U 16064A   20026.87641069 -.00000281  00000-0  00000-0 0  9992
2 41836   0.0143  44.0668 0000843 238.0572 299.7404  1.00273032 11793
UTC
Height (km)
Latitude
Longitude
Inclination
Orbital Period
UTC large
Height (km)
Speed (km/s)
/
Latitude / Longitude
Inclination (degrees)
Orbital Period (minutes)
Azimuth
Elevation
Range (km)
Doppler Factor
iOS Compass Heading
iOS Angle

Next 30 passes for location: Hong Kong

Rise time Rise Azimuth (degrees) Set time Set Azimuth (degrees) Duration Max altitude (degrees)

No matching passes for this satellites